Phuket, Thailand

1:32 PM +07 on April 23, 2017 (GMT +0700)
Phuket International

Weather History for VTSP - February, 2013

Change the Weather History Date:

Friday, February 8, 2013

  Actual Average Record
Temperature  
Mean Temperature 84 °F -  
Max Temperature 92 °F 91 °F 96 °F (2002)
Min Temperature 75 °F 75 °F 64 °F (2017)
Cooling Degree Days 18    
Growing Degree Days 34 (Base 50)    
Moisture  
Dew Point 72 °F    
Average Humidity 71    
Maximum Humidity 95    
Minimum Humidity 43    
Precipitation  
Precipitation 0.00 in 0.05 in - ()
Sea Level Pressure  
Sea Level Pressure 29.81 in    
Wind  
Wind Speed 4 mph ()    
Max Wind Speed 15 mph    
Max Gust Speed -    
Visibility 5.7 miles    
Events      
Averages and records for this station are not official NWS values.
T = Trace of Precipitation, MM = Missing Value Source: Averaged Metar Reports

Daily Weather History Graph

Daily Weather History Graph

Search for Another Location

Airport or City:

Trip Planner

Search our weather history database for the weather conditions in past years. The results will help you decide how hot, cold, wet, or windy it might be!

Date:

Astronomy

Feb. 08, 2013 Rise Set
Actual Time 6:46 AM +07 6:35 PM +07
Civil Twilight 6:24 AM +07 6:57 PM +07
Nautical Twilight 5:59 AM +07 7:22 PM +07
Astronomical Twilight 5:34 AM +07 7:47 PM +07
Moon 4:36 AM +07 (2/8) 4:42 PM +07 (2/8)
Length of Visible Light 12h 32m
Length of Day
11h 49m
Waning Crescent, 6% of the Moon is Illuminated
Feb 8
Waning Crescent
Feb 10
New
Feb 18
First Quarter
Feb 26
Full
Mar 5
Last Quarter

Hourly Weather History & Observations

Time (+07) Temp. Heat Index Dew Point Humidity Pressure Visibility Wind Dir Wind Speed Gust Speed Precip Events Conditions
12:00 AM 80.6 °F 86.2 °F 75.2 °F 84% 29.86 in 5.0 mi Calm Calm - N/A   Mostly Cloudy
12:30 AM 80.6 °F 86.2 °F 75.2 °F 84% 29.86 in 5.0 mi Calm Calm - N/A   Mostly Cloudy
1:00 AM 80 °F - 77 °F 86% 29.82 in 5 mi Calm Calm - -   Mist
1:00 AM 78.8 °F - 75.2 °F 89% 29.86 in 5.0 mi Variable 1.2 mph - N/A   Mostly Cloudy
1:30 AM 78.8 °F - 75.2 °F 89% 29.83 in 5.0 mi Calm Calm - N/A   Mostly Cloudy
2:00 AM 78.8 °F - 73.4 °F 83% 29.83 in 5.0 mi NNE 3.5 mph - N/A   Mostly Cloudy
2:30 AM 77.0 °F - 73.4 °F 89% 29.83 in 5.0 mi Calm Calm - N/A   Mostly Cloudy
3:00 AM 77.0 °F - 73.4 °F 89% 29.83 in 5.0 mi Calm Calm - N/A   Mostly Cloudy
3:30 AM 77.0 °F - 73.4 °F 89% 29.80 in 5.0 mi Calm Calm - N/A   Mostly Cloudy
4:00 AM 75.2 °F - 73.4 °F 94% 29.80 in 5.0 mi Calm Calm - N/A   Mostly Cloudy
4:30 AM 75.2 °F - 73.4 °F 94% 29.80 in 5.0 mi Calm Calm - N/A   Partly Cloudy
5:00 AM 75.2 °F - 73.4 °F 94% 29.80 in 5.0 mi Calm Calm - N/A   Mostly Cloudy
5:30 AM 75.2 °F - 73.4 °F 94% 29.80 in 4.3 mi Calm Calm - N/A   Mostly Cloudy
6:00 AM 75.2 °F - 73.4 °F 94% 29.80 in 4.3 mi Calm Calm - N/A   Mostly Cloudy
6:30 AM 75.2 °F - 73.4 °F 94% 29.83 in 4.3 mi Calm Calm - N/A   Scattered Clouds
7:00 AM 76 °F - 75 °F 95% 29.80 in 5 mi ESE 3.5 mph - -   Mist
7:00 AM 75.2 °F - 73.4 °F 94% 29.83 in 4.3 mi Variable 2.3 mph - N/A   Mostly Cloudy
7:30 AM 77.0 °F - 73.4 °F 89% 29.83 in 5.0 mi Variable 2.3 mph - N/A   Mostly Cloudy
8:00 AM 78.8 °F - 75.2 °F 89% 29.83 in 5.0 mi East 3.5 mph - N/A   Mostly Cloudy
8:30 AM 84.2 °F 92.3 °F 75.2 °F 74% 29.83 in 6.2 mi East 9.2 mph - N/A   Partly Cloudy
9:00 AM 84.2 °F 92.3 °F 75.2 °F 74% 29.83 in 6.2 mi ESE 12.7 mph - N/A   Partly Cloudy
9:30 AM 86.0 °F 93.4 °F 73.4 °F 66% 29.83 in 6.2 mi East 11.5 mph - N/A   Scattered Clouds
10:00 AM 86.0 °F 91.8 °F 71.6 °F 62% 29.86 in 6.2 mi East 12.7 mph - N/A   Scattered Clouds
10:30 AM 87.8 °F 93.8 °F 71.6 °F 58% 29.83 in 6.2 mi East 9.2 mph - N/A   Scattered Clouds
11:00 AM 87.8 °F 93.8 °F 71.6 °F 58% 29.83 in 6.2 mi East 11.5 mph - N/A   Scattered Clouds
11:30 AM 89.6 °F 94.7 °F 69.8 °F 52% 29.83 in 6.2 mi East 11.5 mph - N/A   Scattered Clouds
12:30 PM 89.6 °F 96.2 °F 71.6 °F 55% 29.80 in 6.2 mi East 12.7 mph - N/A   Scattered Clouds
1:00 PM 90 °F - 72 °F 47% 29.82 in 6 mi East 5.8 mph - -   Scattered Clouds
1:00 PM 91.4 °F 96.8 °F 69.8 °F 49% 29.80 in 6.2 mi East 11.5 mph - N/A   Scattered Clouds
1:30 PM 91.4 °F 96.8 °F 69.8 °F 49% 29.80 in 6.2 mi East 9.2 mph - N/A   Scattered Clouds
2:00 PM 93.2 °F 97.7 °F 68.0 °F 44% 29.77 in 6.2 mi East 15.0 mph - N/A   Scattered Clouds
2:30 PM 93.2 °F 97.7 °F 68.0 °F 44% 29.77 in 6.2 mi East 12.7 mph - N/A   Scattered Clouds
3:00 PM 93.2 °F 97.7 °F 68.0 °F 44% 29.74 in 6.2 mi ENE 9.2 mph - N/A   Scattered Clouds
3:30 PM 93.2 °F 97.7 °F 68.0 °F 44% 29.74 in 6.2 mi East 11.5 mph - N/A   Scattered Clouds
4:00 PM 91.4 °F 94.0 °F 66.2 °F 43% 29.74 in 6.2 mi East 11.5 mph - N/A   Scattered Clouds
4:30 PM 91.4 °F 94.0 °F 66.2 °F 43% 29.74 in 6.2 mi ESE 10.4 mph - N/A   Scattered Clouds
5:00 PM 91.4 °F 95.4 °F 68.0 °F 46% 29.74 in 6.2 mi East 10.4 mph - N/A   Scattered Clouds
5:30 PM 89.6 °F 93.4 °F 68.0 °F 49% 29.74 in 6.2 mi ESE 6.9 mph - N/A   Scattered Clouds
6:00 PM 87.8 °F 90.4 °F 66.2 °F 49% 29.74 in 6.2 mi ESE 5.8 mph - N/A   Scattered Clouds
6:30 PM 86.0 °F 90.4 °F 69.8 °F 58% 29.77 in 6.2 mi ESE 5.8 mph - N/A   Mostly Cloudy
7:00 PM 88 °F - 72 °F 50% 29.75 in 6 mi Calm Calm - -   Scattered Clouds
7:00 PM 86.0 °F 90.4 °F 69.8 °F 58% 29.77 in 6.2 mi ESE 6.9 mph - N/A   Mostly Cloudy
7:30 PM 84.2 °F 88.4 °F 69.8 °F 62% 29.77 in 6.2 mi East 3.5 mph - N/A   Mostly Cloudy
8:00 PM 82.4 °F 87.2 °F 71.6 °F 70% 29.80 in 6.2 mi ENE 3.5 mph - N/A   Scattered Clouds
8:30 PM 78.8 °F - 73.4 °F 83% 29.83 in 6.2 mi Calm Calm - N/A   Scattered Clouds
9:00 PM 82.4 °F 88.2 °F 73.4 °F 74% 29.83 in 6.2 mi NNE 4.6 mph - N/A   Scattered Clouds
9:30 PM 80.6 °F 85.4 °F 73.4 °F 79% 29.86 in 6.2 mi NE 4.6 mph - N/A   Scattered Clouds
10:00 PM 82.4 °F 88.2 °F 73.4 °F 74% 29.86 in 6.2 mi NE 3.5 mph - N/A   Scattered Clouds
10:30 PM 80.6 °F 85.4 °F 73.4 °F 79% 29.86 in 6.2 mi ENE 3.5 mph - N/A   Mostly Cloudy
11:00 PM 80.6 °F 86.2 °F 75.2 °F 84% 29.86 in 6.2 mi Variable 2.3 mph - N/A   Scattered Clouds
11:30 PM 82.4 °F 89.5 °F 75.2 °F 79% 29.89 in 6.2 mi NNW 4.6 mph - N/A   Scattered Clouds